FW2072 Weather Reports


time (UTC)temp
C
wind
direction
speed
KPH
gust
KPH
rain 1hr
cm
rain 24hr
cm
rain mn
cm
humidity
%
barometer
mb
20260507064624 2 194 0.0 9.7 0.10 0.46 0.46 94 1016.5
20260507063025 2 216 0.0 1.6 0.10 0.43 0.43 94 1016.5
20260507061522 2 216 0.0 0.0 0.05 0.38 0.38 94 1016.2
20260507060019 2 216 0.0 3.2 0.10 0.38 0.38 94 1016.0
20260507054518 2 216 0.0 1.6 0.08 0.36 0.36 94 1015.9
20260507053017 3 216 0.0 1.6 0.10 0.33 0.33 94 1015.8
20260507051519 2 134 0.0 0.0 0.18 0.33 0.33 93 1015.6
20260507050014 2 134 0.0 3.2 0.18 0.28 0.28 93 1015.5
20260507044514 2 133 0.0 6.4 0.20 0.28 0.28 92 1015.5
20260507043015 2 151 1.6 4.8 0.18 0.25 0.25 92 1015.7
20260507041513 3 169 0.0 11.3 0.10 0.18 0.18 91 1015.7
20260507040011 3 219 3.2 16.1 0.05 0.13 0.13 90 1015.6
20260507034506 4 210 3.2 11.3 0.05 0.08 0.08 88 1015.1
20260507033002 5 103 1.6 3.2 0.08 0.08 0.08 90 1014.9
20260507031559 5 101 0.0 3.2 0.08 0.08 0.08 88 1014.6
20260507030059 5 105 0.0 3.2 0.08 0.08 0.08 89 1014.7
20260507024600 5 254 0.0 4.8 0.05 0.05 0.05 87 1014.6
20260507023055 6 209 0.0 1.6 0.03 0.03 0.03 83 1014.6
20260507021554 6 202 1.6 6.4 0.00 0.00 0.00 76 1014.4
20260507020054 6 186 1.6 4.8 0.00 0.00 0.00 78 1014.2
20260507014550 6 184 0.0 3.2 0.00 0.00 0.00 80 1014.3
20260507013048 6 183 0.0 4.8 0.00 0.00 0.00 82 1014.2
20260507011548 6 178 0.0 4.8 0.00 0.00 0.00 81 1014.2
20260507010104 6 202 1.6 12.9 0.00 0.00 0.00 79 1014.2
20260507004543 6 264 1.6 9.7 0.00 0.00 0.00 81 1014.1
20260507003043 6 176 3.2 8.0 0.00 0.00 0.00 81 1014.1
20260507001549 6 223 3.2 11.3 0.00 0.00 0.00 80 1014.0
20260507000041 6 249 3.2 11.3 0.00 0.00 0.00 79 1013.9
20260506234540 6 138 3.2 8.0 0.00 0.00 0.00 78 1013.7
20260506233041 6 252 3.2 11.3 0.00 0.00 0.00 78 1013.6
20260506231539 6 231 1.6 20.9 0.00 0.00 0.00 75 1013.5
20260506230043 6 234 3.2 14.5 0.00 0.00 0.00 71 1013.4
20260506224536 6 253 4.8 14.5 0.00 0.00 0.00 74 1013.4
20260506223042 6 196 3.2 12.9 0.00 0.00 0.00 73 1013.3
20260506221543 6 227 1.6 11.3 0.00 0.00 0.00 74 1013.1
20260506220044 6 188 3.2 17.7 0.00 0.00 0.00 71 1013.1
20260506214535 7 336 1.6 8.0 0.00 0.00 0.00 71 1012.9
20260506213032 7 338 1.6 6.4 0.00 0.00 0.00 72 1012.8
20260506211534 7 333 1.6 6.4 0.00 0.00 0.00 71 1012.7
20260506210030 7 288 0.0 6.4 0.00 0.00 0.00 73 1012.6
20260506204529 7 267 3.2 9.7 0.00 0.00 0.00 74 1012.5
20260506203029 7 265 3.2 9.7 0.00 0.00 0.00 74 1012.4
20260506201528 6 283 1.6 6.4 0.00 0.00 0.00 75 1012.3
20260506200027 7 318 0.0 9.7 0.00 0.00 0.00 74 1012.3
20260506194525 6 275 3.2 9.7 0.00 0.00 0.00 75 1012.2
20260506193031 6 323 3.2 8.0 0.00 0.00 0.00 76 1012.2
20260506191526 6 316 1.6 8.0 0.00 0.00 0.00 77 1012.1
20260506190025 6 252 1.6 9.7 0.00 0.00 0.00 76 1012.1
20260506184526 5 315 0.0 4.8 0.00 0.00 0.00 77 1012.1
20260506183023 5 336 1.6 6.4 0.00 0.00 0.00 78 1012.1
20260506181522 5 328 1.6 6.4 0.00 0.00 0.00 79 1012.0
20260506180022 5 280 0.0 4.8 0.00 0.00 0.00 80 1011.9
20260506174520 5 260 0.0 4.8 0.00 0.00 0.00 80 1011.8
20260506173021 4 355 0.0 4.8 0.00 0.00 0.00 81 1011.8
20260506171520 3 20 0.0 3.2 0.00 0.00 0.00 81 1011.6
20260506170017 3 17 0.0 1.6 0.00 0.00 0.00 81 1011.6
20260506164516 3 17 0.0 4.8 0.00 0.00 0.00 82 1011.3
20260506163015 3 18 0.0 1.6 0.00 0.00 0.00 83 1011.3
20260506161515 3 18 0.0 0.0 0.00 0.00 0.00 83 1011.1
20260506160015 2 18 0.0 0.0 0.00 0.00 0.00 84 1011.1
20260506154513 2 18 0.0 0.0 0.00 0.00 0.00 83 1010.9
20260506153012 2 18 0.0 0.0 0.00 0.00 0.00 83 1011.0
20260506151512 2 18 0.0 0.0 0.00 0.00 0.00 83 1010.9
20260506150011 2 18 0.0 0.0 0.00 0.00 0.00 82 1010.7
20260506144523 2 18 0.0 1.6 0.00 0.00 0.00 82 1010.6
20260506143010 2 18 0.0 3.2 0.00 0.00 0.00 81 1010.7
20260506141508 2 18 0.0 3.2 0.00 0.00 0.00 80 1010.6
20260506140008 3 18 0.0 4.8 0.00 0.00 0.00 79 1010.6
20260506134507 3 18 0.0 1.6 0.00 0.00 0.00 78 1010.6
20260506133006 3 18 0.0 1.6 0.00 0.00 0.00 78 1010.6
20260506131507 2 18 0.0 4.8 0.00 0.00 0.00 78 1010.5
20260506130005 2 49 0.0 3.2 0.00 0.00 0.00 79 1010.4
20260506124505 2 50 0.0 1.6 0.00 0.00 0.00 79 1010.4
20260506123005 2 54 0.0 4.8 0.00 0.00 0.00 78 1010.4
20260506121504 2 93 0.0 3.2 0.00 0.00 0.00 79 1010.3
20260506120003 2 200 0.0 3.2 0.00 0.00 0.00 80 1010.3
20260506114607 2 200 0.0 3.2 0.00 0.00 0.00 80 1010.2
20260506113058 2 200 0.0 4.8 0.00 0.00 0.00 80 1010.2
20260506111556 2 200 0.0 3.2 0.00 0.00 0.00 79 1010.2
20260506110055 2 200 0.0 1.6 0.00 0.00 0.00 80 1010.1
20260506104603 2 200 0.0 3.2 0.00 0.00 0.00 81 1010.0
20260506103057 3 200 0.0 3.2 0.00 0.00 0.00 81 1009.9
20260506101550 3 201 0.0 3.2 0.00 0.00 0.00 80 1009.9
20260506100103 3 188 1.6 4.8 0.00 0.00 0.00 76 1009.8
20260506094545 4 220 0.0 4.8 0.00 0.00 0.00 72 1009.8
20260506093045 4 194 0.0 8.0 0.00 0.00 0.00 70 1009.7
20260506091540 5 249 0.0 8.0 0.00 0.00 0.00 68 1009.7
20260506090041 5 250 1.6 8.0 0.00 0.00 0.00 66 1009.4
20260506084538 5 127 0.0 17.7 0.00 0.00 0.00 64 1009.4
20260506083035 5 140 0.0 6.4 0.00 0.00 0.00 65 1009.3
20260506081533 5 145 0.0 12.9 0.00 0.00 0.00 64 1009.2
20260506073028 5 123 11.3 24.1 0.00 0.00 0.00 65 1008.7
20260506071525 5 122 8.0 25.7 0.00 0.00 0.00 64 1008.7